Home > Time Zones > World Clock > Weather > Spain > Ceuta > Past weeks

Flag for Spain Weather past 2 weeks in Ceuta, Ceuta, Spain

Now
54 °F

Sunny.


Feels Like: 49 °F
Forecast: 52 / 57 °F
Wind: 16 mph from West

Location: Gibraltar Airport

Current Time: Feb 1, 2015 at 2:49:53 PM

Latest Report: Feb 1, 2015 at 1:50 PM


Visibility: 10 mi

Pressure: 30.15 "Hg

Humidity: 38%

Dew point: 28 °F

Location of CeutaLocation

Historic Weather in Ceuta — Graph

°F

Ceuta temperature yesterday

Maximum temperature yesterday: 61 °F (at 12:50 AM)
Minimum temperature yesterday: 54 °F (at 10:50 PM)
Average temperature yesterday: 59 °F

Past Weeks' High & Low Weather Summary

 TemperatureHumidityPressure
High64 °F (Jan 27, 1:50 PM)100% (Jan 19, 12:50 AM)30.36 "Hg (Jan 19, 12:50 AM)
Low45 °F (Jan 25, 4:50 AM)27% (Jan 25, 11:50 AM)29.62 "Hg (Jan 19, 5:50 AM)
Average54 °F68%30.10 "Hg
* Reported Jan 17 1:50 PM — Feb 1 1:50 PM, Ceuta, Weather by CustomWeather, © 2014

Note: Actual official high and low records may vary slightly from our data, if they occured in-between our weather recording intervals... More about our weather records

Advertising

Ceuta weather history for previous 24 hours

 ConditionsComfort  
Time TempWeatherWind HumidityBarometerVisibility
1:50 PM
Feb 1
54 °FSunny.16 mph38%30.15 "Hg10 mi
12:50 PM54 °FPassing clouds.18 mph47%30.15 "HgN/A
11:50 AM52 °FPassing clouds.15 mph50%30.18 "HgN/A
10:50 AM48 °FPassing clouds.20 mph62%30.15 "HgN/A
9:50 AM46 °FPassing clouds.18 mph71%30.15 "HgN/A
8:50 AM46 °FPassing clouds.16 mph76%30.12 "HgN/A
7:50 AM46 °FPassing clouds.17 mph71%30.09 "HgN/A
6:50 AM46 °FPassing clouds.17 mph71%30.09 "HgN/A
5:50 AM46 °FClear.18 mph71%30.07 "HgN/A
4:50 AM48 °FClear.20 mph71%30.04 "HgN/A
3:50 AM48 °FClear.18 mph71%30.07 "HgN/A
2:50 AM50 °FClear.17 mph67%30.04 "HgN/A
1:50 AM50 °FClear.23 mph67%30.04 "HgN/A
12:50 AM52 °FClear.21 mph62%30.04 "HgN/A
11:50 PM
Jan 31
54 °FClear.23 mph58%30.01 "HgN/A
10:50 PM54 °FClear.17 mph58%29.98 "Hg10 mi
9:50 PM55 °FClear.21 mph51%29.95 "Hg10 mi
8:50 PM57 °FPassing clouds.17 mph51%29.92 "HgN/A
7:50 PM59 °FPassing clouds.17 mph59%29.89 "HgN/A
6:50 PM59 °FClear.21 mph55%29.86 "Hg10 mi
5:50 PM61 °FScattered clouds.22 mph52%29.83 "HgN/A
4:50 PM61 °FScattered clouds.25 mph48%29.80 "HgN/A
3:50 PM61 °FPassing clouds.23 mph48%29.80 "HgN/A
2:50 PM61 °FPassing clouds.22 mph52%29.80 "HgN/A
Weather by CustomWeather, © 2014

See weather overviewHow to use our weather pages